Vertical_Velocity
8 6 3 7 -4 -3 -5 5 7 2 0 1 5 5 5 3 8 6 25 -4 3 -6
1 3 3 2 2 0 -2 1 3 -2 1 5 5 5 5 3 3 19 -5 -14 8 -0
-1 1 3 -1 -4 3 0 -2 10 10 7 6 4 6 2 0 5 -1 -4 1 -0 15
-5 -2 5 -1 -3 -2 2 3 6 6 10 5 5 2 -0 5 -0 -14 14 2 2 1
-4 5 4 1 2 4 4 4 9 6 5 0 1 -2 3 1 12 -2 3 14 7 -4
-1 3 -1 2 1 4 -1 6 1 -2 2 4 0 -2 -0 4 12 -3 13 2 5 6
2 3 -1 2 1 4 3 2 2 3 1 3 3 8 3 -4 5 1 3 4 3 5
2 8 1 6 1 9 4 3 2 2 2 4 2 2 -4 4 -1 11 6 14 0 -3
-3 1 3 3 1 -2 -3 -2 -8 4 5 -1 15 8 9 6 5 6 -2 -5 1 1
1 -1 3 8 6 1 7 20 -6 7 1 5 8 11 6 -0 3 3 -1 3 4 -2
14 8 3 -1 -11 2 21 20 14 9 2 7 2 2 5 1 3 1 -3 5 2 -8
-3 2 -5 3 -3 2 -3 7 -0 -1 6 -5 1 5 2 0 2 2 -2 -4 -5 -1
0 -1 1 1 2 3 5 6 1 2 -2 1 3 0 3 -0 -5 -3 -2 -1 -2 -2
3 3 5 8 8 8 1 -0 1 2 -1 -2 -3 -3 -2 -3 2 3 0 -0 0 1
Height
3046 3048 3050 3054 3058 3061 3064 3068 3072 3075 3077 3079 3081 3083 3083 3083 3083 3083 3081 3083 3081 3081
3036 3036 3038 3043 3047 3050 3054 3058 3063 3065 3068 3070 3071 3072 3073 3073 3073 3075 3073 3073 3071 3071
3026 3026 3029 3032 3035 3039 3044 3048 3052 3055 3058 3060 3061 3062 3063 3063 3064 3063 3064 3064 3064 3058
3016 3017 3018 3021 3025 3029 3034 3038 3042 3044 3048 3050 3051 3053 3053 3054 3054 3054 3053 3053 3050 3050
3008 3008 3009 3011 3015 3018 3024 3028 3031 3035 3038 3041 3042 3042 3043 3044 3045 3045 3045 3043 3041 3032
2998 3000 3000 3003 3005 3009 3014 3019 3023 3026 3029 3031 3031 3033 3035 3037 3036 3036 3033 3030 3029 3029
2989 2992 2994 2996 2998 3002 3007 3012 3016 3019 3020 3022 3024 3025 3027 3028 3026 3026 3024 3022 3020 3021
2982 2986 2987 2989 2992 2997 3002 3006 3009 3012 3014 3016 3018 3019 3020 3020 3020 3017 3015 3013 3014 3014
2977 2980 2982 2985 2988 2992 2996 2999 3003 3006 3007 3010 3010 3012 3010 3009 3012 3012 3012 3009 3009 3008
2973 2975 2978 2980 2984 2987 2991 2993 2999 3000 3002 3002 3003 3002 3004 3003 3003 3003 3003 3003 3001 2999
2969 2971 2975 2977 2978 2983 2986 2988 2990 2994 2997 2995 2999 2999 3000 3001 3000 2999 2997 2995 2994 2990
2968 2969 2973 2975 2980 2978 2983 2986 2988 2991 2990 2993 2995 2996 2997 2996 2995 2993 2991 2990 2983 2979
2969 2971 2974 2975 2976 2978 2982 2985 2986 2988 2990 2990 2991 2993 2993 2992 2989 2987 2984 2980 2974 2969
2968 2971 2974 2977 2979 2980 2984 2985 2987 2989 2989 2990 2990 2990 2988 2986 2983 2979 2975 2971 2967 2961